RH
13 12 12 11 10 9 10 14 19 24 28 29 28 27 32 36 40 40 38 43 46 50 51 47 40 46 65 66 64 62 62 45 47 42 39 35 46 59 58 58 63 64 62 52 44
14 13 12 10 10 9 9 10 14 20 25 27 27 26 31 38 42 48 49 50 48 48 48 44 52 52 58 58 59 56 61 44 43 43 44 38 35 44 54 58 63 66 61 47 41
13 13 12 11 10 9 8 8 10 15 21 25 25 25 28 38 42 42 46 52 55 48 45 47 73 59 73 67 47 48 48 47 40 42 45 40 35 37 44 47 55 55 51 41 39
13 12 12 11 11 9 8 7 7 10 16 21 25 24 25 31 35 42 47 52 56 56 51 57 75 76 76 63 47 50 48 41 41 41 47 43 42 40 46 40 46 46 44 40 38
14 12 12 11 10 10 8 6 6 7 10 16 22 24 23 29 34 38 43 48 52 56 54 60 79 68 74 62 51 43 44 39 41 36 39 42 44 40 40 37 35 36 38 37 35
14 13 12 11 10 10 9 7 5 5 7 11 17 21 21 29 29 35 42 45 49 53 49 56 56 51 64 52 42 41 45 45 36 36 41 35 35 39 33 34 37 31 35 35 41
13 13 12 11 11 10 9 8 6 4 5 7 12 17 22 27 26 30 40 45 49 49 43 46 48 48 61 65 45 47 48 49 40 42 44 45 42 35 31 31 36 37 40 41 42
13 12 12 11 10 10 8 7 6 5 4 5 8 12 21 22 22 26 34 43 45 42 40 41 42 44 54 53 60 58 64 68 49 42 46 47 43 31 33 33 34 37 38 38 39
12 12 12 11 11 9 8 7 6 5 4 4 6 9 18 17 18 24 29 39 42 42 39 38 37 52 70 70 62 57 71 69 59 46 37 46 49 37 31 32 34 38 35 37 39
13 12 11 11 11 11 10 8 7 5 4 5 8 10 11 16 17 21 29 37 39 41 38 28 36 50 61 62 67 52 53 54 56 51 40 46 51 41 33 35 30 32 32 33 36
15 12 11 11 11 13 11 12 13 13 7 6 8 10 9 13 15 17 28 34 37 39 39 38 38 48 48 54 50 46 42 52 51 50 45 48 50 44 34 38 33 31 29 28 30
16 15 12 11 11 14 13 19 18 20 14 7 7 7 10 11 12 14 19 30 36 36 39 43 37 44 47 47 45 37 39 51 51 41 52 67 51 51 43 36 38 34 31 30 31
17 17 16 12 11 14 14 17 17 17 15 15 9 8 8 8 10 12 14 22 31 33 45 49 43 38 31 37 35 32 42 46 51 44 48 51 45 43 45 47 34 41 38 33 32
14 16 18 18 12 14 15 16 16 16 18 18 13 9 10 9 9 11 10 14 19 24 32 39 38 31 23 22 27 30 39 33 35 40 45 37 43 45 50 49 41 36 43 38 33
13 13 15 21 20 19 21 17 16 16 33 20 14 10 11 10 14 10 12 10 15 18 20 25 22 20 18 23 28 28 26 28 31 32 27 32 44 39 53 50 50 46 41 43 42
12 13 13 16 20 20 21 19 18 21 31 19 14 11 12 11 14 14 11 9 11 12 14 15 17 15 14 19 19 20 16 19 23 26 24 28 22 45 53 46 45 44 41 45 48
11 12 13 14 19 19 20 21 22 26 27 22 16 12 12 14 14 14 13 12 11 10 10 10 9 10 8 12 13 16 20 24 26 25 27 24 13 29 39 35 35 30 35 37 41
10 11 12 14 19 20 20 22 26 29 27 23 17 15 16 17 16 15 15 14 11 11 12 15 15 11 10 8 13 16 19 22 27 21 25 20 18 20 20 23 20 20 28 32 32
11 11 10 13 16 20 21 23 21 30 28 25 19 17 17 18 18 17 16 16 16 14 14 18 17 12 10 9 9 16 21 21 20 19 19 15 19 19 18 21 36 38 39 46 37
13 18 21 18 16 21 23 21 26 27 25 21 22 21 22 22 20 18 18 17 18 17 14 16 21 18 15 12 10 10 15 19 20 21 22 18 21 22 23 27 30 28 30 38 41
17 23 22 16 18 23 23 21 26 28 23 23 19 24 26 24 22 20 20 20 16 17 16 16 16 21 17 16 14 12 11 13 16 18 19 19 31 27 26 32 31 25 24 25 34
22 26 26 19 16 21 24 24 29 29 23 19 19 21 25 27 25 23 20 21 22 17 15 14 15 19 21 21 17 15 19 19 14 17 17 17 22 22 23 22 25 26 25 24 26
27 32 29 24 20 20 20 24 27 26 26 24 22 22 22 24 26 25 26 27 27 23 21 20 18 16 17 19 20 20 20 18 19 20 21 23 22 24 24 25 27 28 25 23 24
25 26 28 23 24 30 32 31 28 24 23 22 24 26 24 25 25 25 28 30 27 24 23 20 20 23 23 21 25 30 25 28 23 20 19 20 20 21 29 30 34 33 30 28 26
22 30 33 34 26 26 32 32 31 27 25 22 21 20 24 26 27 30 30 31 34 29 28 25 25 24 23 22 27 30 31 32 31 25 24 23 25 26 36 36 36 39 34 32 31
26 29 30 32 31 30 30 30 32 31 29 26 24 25 24 25 29 35 37 34 33 37 32 30 27 28 28 27 27 32 34 36 35 34 34 34 29 30 38 40 41 43 40 37 36
21 23 23 26 24 23 23 28 30 28 30 26 27 25 25 28 26 28 30 30 31 33 34 36 33 34 32 34 33 25 28 33 36 36 35 36 38 39 43 42 41 40 41 39 38